Flag for Germany Weather past 2 weeks in Güstrow, Mecklenburg-Western Pomerania, Germany

Now
59 °F

Fog.


Feels Like: 59 °F
Forecast: 56 / 67 °F
Wind: 5 mph from Southeast

Location: Laage

Current Time: Aug 31, 2014 at 7:03:26 AM

Latest Report: Aug 31, 2014 at 6:20 AM


Visibility: 1 mi

Pressure: 29.86 "Hg

Humidity: 100%

Dew point: 59 °F

Location of GüstrowLocation

Historic Weather in Güstrow — Graph

°F

Güstrow temperature yesterday

Maximum temperature yesterday: 66 °F (at 1:20 PM)
Minimum temperature yesterday: 52 °F (at 6:02 AM)
Average temperature yesterday: 59 °F

Past Weeks' High & Low Weather Summary

 TemperatureHumidityPressure
High72 °F (Aug 28, 3:20 PM)100% (Aug 25, 7:20 AM)30.04 "Hg (Aug 25, 7:20 AM)
Low39 °F (Aug 26, 4:20 AM)38% (Aug 28, 3:20 PM)29.47 "Hg (Aug 18, 2:20 PM)
Average57 °F77%29.85 "Hg
* Reported Aug 16 6:20 AM — Aug 31 6:00 AM, Güstrow, Weather by CustomWeather, © 2014

Note: Actual official high and low records may vary slightly from our data, if they occured in-between our weather recording intervals... More about our weather records

Advertising

Güstrow weather history for previous 24 hours

 ConditionsComfort  
Time TempWeatherWind HumidityBarometerVisibility
6:00 AM
Aug 31
59 °FFog.5 mph100%29.86 "Hg1 mi
5:20 AM59 °FDrizzle. Fog.3 mph94%29.89 "Hg2 mi
4:20 AM59 °FFog.1 mph94%29.89 "Hg2 mi
3:20 AM57 °FFog.3 mph100%29.92 "Hg1 mi
2:49 AM59 °FFog.1 mph94%29.92 "Hg3 mi
2:20 AM59 °FFog.2 mph100%29.92 "Hg3 mi
1:20 AM59 °FFog.3 mph94%29.92 "Hg3 mi
12:20 AM59 °FPassing clouds.5 mph100%29.95 "Hg4 mi
11:20 PM
Aug 30
59 °FPassing clouds.5 mph100%29.95 "Hg5 mi
10:20 PM61 °FPartly cloudy.3 mph94%29.95 "HgN/A
9:20 PM61 °FRain. Mostly cloudy.5 mph94%29.95 "Hg5 mi
8:20 PM61 °FLight rain. Partly sunny.3 mph94%29.95 "Hg6 mi
7:20 PM63 °FBroken clouds.3 mph88%29.95 "HgN/A
6:20 PM63 °FPartly sunny.7 mph88%29.95 "HgN/A
5:20 PM61 °FBroken clouds.6 mph94%29.95 "HgN/A
4:20 PM63 °FLight rain. Broken clouds.9 mph88%29.95 "Hg4 mi
3:20 PM64 °FLight rain. Partly sunny.10 mph73%29.95 "Hg6 mi
2:20 PM66 °FPartly sunny.7 mph73%29.95 "HgN/A
1:20 PM66 °FPartly sunny.9 mph68%29.95 "HgN/A
12:20 PM64 °FBroken clouds.9 mph78%29.98 "HgN/A
11:20 AM63 °FBroken clouds.5 mph83%29.98 "HgN/A
10:20 AM61 °FPartly sunny.6 mph88%29.98 "HgN/A
9:20 AM59 °FPartly sunny.3 mph88%29.98 "HgN/A
8:20 AM57 °FBroken clouds.5 mph94%29.95 "HgN/A
7:20 AM54 °FFog.2 mph100%29.98 "HgN/A
Weather by CustomWeather, © 2014

See weather overviewHow to use our weather pages